Погода в Горине

Погода в Горине : погода сейчас, прогноз погоды и архив. Всё, что Вы хотите узнать о погоде в Горине!

Хотите узнать прогноз погоды в Горине? Тогда Вам сюда: Погода в Горине

Поиск расширенной информации на нашем сайте:

Другие новости

Новости СМИ2

Главная страница сайта

Новости сайта

03.07.2017

Напоминаем, что на нашем специализированном сайте Метеоцентр.Азия вы можете получить высокодетализированные автоматические прогнозы погоды по пунктам России, СНГ и мира в авиационном формате (включающие направление и скорость ветра, видимость, явления погоды, количество и форму облачности, нижнюю и верхнюю границу облачности).

Рекомендуем: обратите внимание у метро Октябрьская описание помещений на сайте

Погода в Горине - сегодня

Время (UTC), дата Ветер
(°,м/с) 
Видим.   Явления Облачность Т
(°С)
Тd
(°С)
f(%) Тe
(°С)
Pmin
(гПа)
dP
(гПа)
Po
(мм)
O2
(г/м3)
Тmin Tmax R s Состояние
почвы
00 22.11.17 290 (З) 10 км  слаб. снег  10/0 средняя 
[As op]
-14.9 -16.2 90 -15  1007.5  -1.9  747  320  -16.6         
03 22.11.17 340 (С) 10 км  слаб. снег  10/0 средняя 
[As op]
-12.5 -14.5 85 -12  1005.4  -2.1  745  316           
06 22.11.17 тихо ()   10 км  слаб. снег  10/0 средняя 
[As op]
-12 -14.7 80 -12  1005.2  -0.2  745  315           
09 22.11.17 тихо ()   10 км  слаб. снег  10/0 средняя 
[As op]
-12.8 -14.1 90 -13  1006.2  746  316    -11.4     
12 22.11.17 тихо ()   20000 м  {снег}  10/0 средняя 
[As op]
-13.6 -14.9 90 -14  1007.5  1.2  747  318           
15 22.11.17 тихо ()   20000 м    ясно 
-15.2 -16.5 90 -15  1008.8  1.2  747  320           
18 22.11.17 тихо ()   20000 м    ясно 
-16.8 -18.1 90 -17  1009.8  0.9  748  323           
21 22.11.17 тихо ()   20000 м    ясно 
-20.4 -22.3 85 -20  1010.5  0.5  749  328  -27    0.0  14  равномерный
сухой снег
100% 
00 23.11.17 тихо ()   20000 м    9/0 верхняя 
[Ci sp]
-19.4 -21.3 85 -19  1011.2  0.7  749  326  -21.6         
03 23.11.17 340 (С) н/о    н/о 
-13 -17.7 68 -15  1010.1  -0.8  749  318           
06 23.11.17 320 (СЗ) н/о    н/о 
-13.9 -17.7 73 -14  1010.3  -0.1  749  319           
09 23.11.17 320 (СЗ) 20000 м    3/0 верхняя 
[Ci sp]
-19.7 -21.6 85 -22  1011.8  1.3  749  327    -12.6       
12 23.11.17 тихо ()   20000 м    ясно 
-19.4 -21.3 85 -19  1011.7  -0.1  749  327           
15 23.11.17 тихо ()   20000 м    ясно 
-21.6 -23.4 85 -22  1011  -0.8  749  329           
18 23.11.17 160 (Ю) 20000 м    ясно 
-24.9 -26.8 84 -25  1010.4  -0.7  748  334           
21 23.11.17 тихо ()   20000 м    ясно 
-24.9 -26.8 84 -25  1009.6  -0.7  748  333  -25      14  равномерный
сухой снег
100% 
00 24.11.17 тихо ()   20000 м    9/0 верхняя 
[Ci sp]
-24.4 -26.9 80 -24  1009.9  0.2  748  333  -25.2         
03 24.11.17 тихо ()   20000 м    9/0 верхняя 
[Ci sp]
-15.8 -18.5 80 -16  1008.4  -1  747  321           
06 24.11.17 тихо ()   20000 м    10/0 верхняя 
[Ci sp]
-14.4 -20.5 60 -14  1008.2  -0.1  747  319           
09 24.11.17 тихо ()   10 км  слаб. снег  10/0 средняя 
[As op]
-18.4 -20.3 85 -18  1009.3  0.9  748  325    -13.8  0.0     
12 24.11.17 240 (ЮЗ) н/о    н/о 
-22.4 -24.9 80 -23  1009.7  0.3  748  330           
15 24.11.17 тихо ()   н/о    н/о 
-25.1 -27.8 78 -25  1009.9  748  334           
18 24.11.17 тихо ()   20000 м    ясно 
-27.3 -29.8 79 -27  1009.9  748  337           
21 24.11.17 тихо ()   20000 м    ясно 
-29.3 -31.8 79 -29  1010.1  0.1  748  339  -29.3    0.0  13  равномерный
сухой снег
100% 
00 25.11.17 тихо ()   20000 м    1/0 верхняя 
[Ci fib]
-24.6 -26.5 84 -25  1001.4  1.5  742  330  -29.6         
Время (UTC), дата Ветер
(°,м/с) 
Видим.   Явления Облачность Т
(°С)
Тd
(°С)
f(%) Тe
(°С)
Pmin
(гПа)
dP
(гПа)
Po
(мм)
O2
(г/м3)
Тmin Tmax R s Состояние
почвы

Для получения пояснительной информации подведите курсор к названию столбца.

ПОГОДА в Горине - архив

Всё, что Вы хотите узнать о погоде в Горине - удобно и подробно!

Выберите нужную дату (начиная с 1 января 2015* года) и нажмите кнопку "Найти".
Будут отображены архивные сводки погоды по пункту Горин, начиная с указанной даты.


Отображать данные в формате CSV (для использования в таблицах Excel)


Внимание! Наш архив погоды предназначен исключительно для личного некоммерческого использования в познавательных целях. Если Вам необходимы официальные справки о состоянии погоды (для производственных, юридических, коммерческих и т.п. целей), обращайтесь в органы Росгидромета.

*Примечание: данная дата относится к архиву по метеостанциям СССР (Россия, СНГ, Балтия).
Архив по метеостанциям Зарубежной Европы и Азии (кроме Китая) хранится 10 дней, по другим регионам земного шара (Китай, Африка, Америка, Австралия, Океания) - 1 день.

Горин - район местоположения метеостанции


Название, широта, долгота, высота метеостанции:
Горин 51.2°ш. 136.8°д. 92 м над ур. моря [Российская Федерация]

Дополнительная информация

В oтличие oт бoльшинства пoгoдных сайтoв мы публикуем пoдрoбную метеoинфoрмацию в детальнoм прoфессиoнальнoм фoрмате.

Характеристики температуры и влажнoсти вoздуха измеряются на высoте 2 м в тени вдали oт зданий и деревьев.
Скoрoсть ветра измеряется на высoте 10 м (на урoвне рoста челoвека скoрoсть ветра ниже в 1.5-2 раза). Если метеoстанция нахoдится в гoрoде или в лесу, тo скoрoсть ветра занижена на 2-4 м/с пo сравнению с oткрытым местoм. Скoрoсть ветра над акватoриями крупных рек и oзёр, а также на вершинах хoлмoв на 2-5 м/с выше, чем в oбычных услoвиях.
Атмoсфернoе давление в разных тoчках местнoсти мoжет значительнo oтличаться oт давления на метеoстанции, в зависимoсти oт услoвий рельефа (при пoдъёме на 10 м давление пoнижается примернo на 1 мм рт.ст.).